Regional Weather Roundup
Issued by NWS

Home | Current Version | Previous Version | Text Only | Print | Product List | Glossary Off
Versions: 1 2 3 4 5 6 7 8 9 10 11 12 13 14 15 16 17 18 19 20 21 22 23 24 25 26 27 28 29 30 31 32 33 34 35 36 37 38 39 40 41 42 43 44 45 46 47 48 49 50

000
ASUS43 KMPX 291410
RWRMN
WEATHER ROUNDUP FOR MINNESOTA
NATIONAL WEATHER SERVICE TWIN CITIES/CHANHASSEN MN
900 AM CDT THU SEP 29 2016


NOTE: "FAIR" INDICATES FEW OR NO CLOUDS BELOW 12,000 FEET WITH NO
SIGNIFICANT WEATHER AND/OR OBSTRUCTIONS TO VISIBILITY. N/A MEANS
CURRENT SKY AND/OR WEATHER CONDITIONS ARE NOT AVAILABLE.

MNZ060>063-068>070-291500-
   Twin Cities Metro

CITY           SKY/WX    TMP DP  RH WIND       PRES   REMARKS
TWIN CITIES    MOSUNNY   52  48  86 E5        30.47R
ST PAUL        MOSUNNY   52  48  86 CALM      30.47F FOG
CRYSTAL        MOSUNNY   51  47  86 NE5       30.46R
BLAINE         MOSUNNY   52  52 100 NE5       30.47R
LAKEVILLE      CLOUDY    48  48 100 NE7       30.46S FOG
EDEN PRAIRIE   SUNNY     53  48  83 E9        30.45S
LAKEVILLE      CLOUDY    48  48 100 NE7       30.46S FOG
SOUTH ST PAUL  MOSUNNY   51  49  92 E3        30.46F
LAKE ELMO      FAIR      52  50  93 NE3       30.47S
$$
MNZ001>005-007-008-013>017-022>024-027-028-291500-
   Northwest Minnesota

CITY           SKY/WX    TMP DP  RH WIND       PRES   REMARKS
BEMIDJI        CLOUDY    51  49  93 CALM      30.50S
HALLOCK        PTSUNNY   52  48  87 SE7       30.47S
ROSEAU         CLOUDY    54  48  82 CALM      30.50R
WARROAD        CLOUDY    54  48  82 CALM      30.51R
THIEF RVR FALL CLOUDY    53  48  83 SE6       30.50R
CROOKSTON      CLOUDY    54  48  82 SE5       30.49S
FOSSTON        PTSUNNY   46  45  93 CALM      30.51R
DETROIT LAKES  CLOUDY    48  46  93 CALM      30.51R
MOORHEAD       MOSUNNY   50  46  87 CALM      30.50R
PARK RAPIDS    CLOUDY    54  48  80 CALM      30.49S
MAHNOMEN       CLOUDY    47  45  91 CALM      30.50R
$$
MNZ006-009>011-018-025>026-291500-
   North Central Minnesota

CITY           SKY/WX    TMP DP  RH WIND       PRES   REMARKS
BAUDETTE       CLOUDY    52  49  89 CALM      30.51S
FLAG ISLAND    CLOUDY    55  45  67 SE6       30.49S
INTL FALLS     CLOUDY    53  49  86 CALM      30.52R
WASKISH        CLOUDY    52  50  93 CALM      30.51S
BIG FORK       CLOUDY    54  52  94 CALM      30.51S
LONGVILLE      CLOUDY    54  52  94 CALM      30.49S
GRAND RAPIDS   CLOUDY    53  51  93 CALM      30.52R
ORR            CLOUDY    52  48  87 CALM      30.50R
COOK           CLOUDY    52  52 100 CALM      30.52R
WALKER         CLOUDY    52  50  94 CALM      30.50R
$$
MNZ012-019>021-037-291500-
   Northeast Minnesota

CITY           SKY/WX    TMP DP  RH WIND       PRES   REMARKS
DULUTH         CLOUDY    54  51  90 E8        30.50R
ELY            CLOUDY    52  48  87 CALM      30.52R
HIBBING        CLOUDY    52  50  93 NE3       30.51R
EVELETH        CLOUDY    53  50  89 CALM      30.52R
DULUTH HARBOR  CLOUDY    57  52  82 NE15      30.51R
TWO HARBORS    PTSUNNY   59  52  77 NE6       30.49R
SILVER BAY     CLOUDY    55  50  82 NE5       30.49S
GRAND MARAIS     N/A     57  46  66 CALM      30.51R
G MARAIS ARPRT CLOUDY    50  43  76 N3        30.53R
$$
MNZ029>031-032-039>041-046>048-054>057-064-291500-
   West Central Minnesota

CITY           SKY/WX    TMP DP  RH WIND       PRES   REMARKS
FERGUS FALLS   CLOUDY    52  46  82 CALM      30.51S
MORRIS         SUNNY     54  48  82 CALM      30.48R
ALEXANDRIA     CLOUDY    53  49  86 CALM      30.50R
ELBOW LAKE     CLOUDY    52  48  86 CALM      30.49S
WADENA         CLOUDY    52  46  82 CALM      30.49R
GLENWOOD       MOSUNNY   50  48  93 N3        30.50R
BENSON         SUNNY     50  48  93 CALM      30.49R
ORTONVILLE     CLOUDY    48  46  93 CALM      30.49R
MADISON        SUNNY     54  52  94 CALM      30.48S
WILLMAR        FAIR      54  50  87 E7        30.49R
$$
MNZ033>034-036-042>043-049>051-058-059-291500-
   Central Minnesota

CITY           SKY/WX    TMP DP  RH WIND       PRES   REMARKS
ST CLOUD       SUNNY     53  50  89 NE5       30.49R
SAUK CENTRE    CLOUDY    50  48  94 CALM      30.50R
PAYNESVILLE    SUNNY     50  50 100 NE3       30.50R
AITKIN         CLOUDY    55  50  82 CALM      30.49R
PINE RIVER     CLOUDY    52  52 100 CALM      30.52R
BRAINERD       CLOUDY    53  51  93 CALM      30.50R
STAPLES        CLOUDY    52  48  87 CALM      30.50R
LONG PRAIRIE   CLOUDY    52  48  87 CALM      30.50R
LITTLE FALLS   CLOUDY    50  48  93 CALM      30.50R
LITCHFIELD     SUNNY     52  50  93 NE5       30.49R
BUFFALO        SUNNY     51  47  87 NE7       30.49R
MAPLE LAKE     SUNNY     52  51  95 NE6       30.49R
HUTCHINSON     SUNNY     53  50  90 NE8       30.49R
$$
MNZ037-044-045-052-053-291500-
   East Central Minnesota

CITY           SKY/WX    TMP DP  RH WIND       PRES   REMARKS
PRINCETON      SUNNY     52  52 100 CALM      30.49R
MORA           CLOUDY    55  50  82 NE5       30.51R
CAMBRIDGE      SUNNY     52  48  87 CALM      30.47R
MOOSE LAKE     CLOUDY    54  50  87 NE6       30.48R
HINCKLEY       PTSUNNY   54  52  94 NE3       30.49R
CLOQUET        CLOUDY    54  50  87 E8        30.50R
MCGREGOR       CLOUDY    52  50  93 CALM      30.51R
$$
MNZ071>073-080-081-089-090-097-098-291500-
   Southwest Minnesota

CITY           SKY/WX    TMP DP  RH WIND       PRES   REMARKS
MONTEVIDEO     SUNNY     52  52 100 CALM      30.50R
GRANITE FALLS  SUNNY     50  49  97 CALM      30.50R
CANBY          SUNNY     47  46  93 CALM      30.50R
MARSHALL       SUNNY     47  45  93 NW6       30.49R
REDWOOD FALLS  SUNNY     51  46  83 NE5       30.48R
OLIVIA         SUNNY     50  46  87 NE5       30.47R
PIPESTONE      SUNNY     48  46  93 CALM      30.46S
WINDOM         SUNNY     50  48  93 N3        30.46S
WORTHINGTON    MOSUNNY   49  47  93 NE6       30.47R
JACKSON        CLOUDY    48  46  93 VRB3      30.46R
TRACY          SUNNY     50  50  98 CALM      30.48R
$$
MNZ065>067-074>077-082>085-091>093-291500-
   South Central Minnesota

CITY           SKY/WX    TMP DP  RH WIND       PRES   REMARKS
MANKATO        CLOUDY    48  48 100 NE8       30.46R FOG
ST JAMES       PTSUNNY   48  48 100 CALM      30.47R
FAIRMONT       FOG       48  48 100 E6        30.46R VSB 1/4
GLENCOE        SUNNY     51  51  97 NE3       30.47R
FARIBAULT      FOG       48  48 100 N3        30.45S VSB 1/2
OWATONNA       FOG       48  48 100 N6        30.45R VSB 3/4
WASECA         MOSUNNY   52  50  93 NE8       30.46R
ALBERT LEA     CLOUDY    54  52  94 NE5       30.44R
$$
MNZ078>079-086>088-094>096-291500-
   Southeast Minnesota

CITY           SKY/WX    TMP DP  RH WIND       PRES   REMARKS
ROCHESTER      CLOUDY    50  50 100 N9        30.43R
RED WING       CLOUDY    50  48  93 CALM      30.45R
STANTON        CLOUDY    49  48  95 NE8       30.45S FOG
DODGE CENTER   FOG       48  48 100 N7        30.44R VSB 1/2
WINONA         CLOUDY    54  50  87 NW10      30.42S
AUSTIN         PTSUNNY   52  48  87 N6        30.43R
PRESTON        CLOUDY    49  47  95 N8        30.42R
$$
ABBREVIATIONS USED IN REMARKS
   TC - TEMPERATURES IN CELSIUS
  WCI - WIND CHILL INDEX
   HX - HEAT INDEX
  VSB - VISIBILITY
$$




USA.gov is the U.S. government's official web portal to all federal, state and local government web resources and services.